Temperature
11 12 13 14 12 11 12 12 13 13 13 15 16 16 15 15 15 16 15 15 16 16 16 16 16 16 16 16 16 16 16 16 16 16 16 16 16 16 16 16 16 16 16 15 15 15 15 15 15
11 12 13 12 11 11 12 12 12 13 14 15 15 15 14 14 14 15 14 15 15 16 15 15 16 16 16 16 16 16 16 16 16 16 16 16 16 16 16 16 16 16 16 15 15 15 15 15 15
11 12 12 9 10 11 12 12 12 13 14 14 13 13 14 13 14 14 15 15 15 15 15 15 15 16 16 16 16 16 16 16 16 16 16 16 16 16 16 16 16 16 16 15 15 15 15 15 15
11 11 11 9 10 11 12 12 11 12 13 13 13 12 13 13 14 14 14 15 15 15 15 15 15 15 16 16 16 16 16 16 16 16 16 16 16 16 16 16 16 16 15 15 15 15 15 15 15
11 11 9 9 10 11 11 12 12 11 11 12 12 11 12 13 14 14 14 14 15 15 15 15 15 15 16 16 16 16 16 16 16 16 16 16 16 16 16 16 16 16 15 15 15 15 15 15 15
10 9 9 9 10 11 11 12 12 11 11 12 12 11 12 13 13 14 14 14 14 15 15 15 15 15 15 15 15 15 15 15 15 15 15 15 15 15 15 15 15 15 15 15 15 15 15 15 15
9 8 8 9 9 10 11 12 12 10 10 11 12 11 11 13 13 14 14 14 14 14 14 14 15 15 15 15 15 15 15 15 15 15 15 15 15 15 15 15 15 15 15 15 15 15 15 15 15
9 7 8 8 9 10 11 11 12 12 11 12 12 11 11 12 13 13 14 14 14 14 14 14 14 15 15 15 15 15 15 15 15 15 15 15 15 15 15 15 15 15 15 15 15 15 15 14 14
9 7 8 8 9 10 10 10 11 11 11 11 12 12 13 12 13 13 13 13 14 14 14 14 14 14 14 14 14 15 15 15 15 15 15 15 15 15 15 15 14 14 14 14 14 14 14 14 14
8 7 8 9 9 10 10 10 11 11 11 11 11 12 12 12 12 13 13 13 13 13 14 14 14 14 14 14 14 14 14 14 14 14 14 14 14 14 14 14 14 14 14 14 14 14 14 14 14
8 8 9 9 10 10 10 10 11 11 10 11 11 12 12 12 12 12 13 13 13 13 13 13 13 14 14 14 14 14 14 14 14 14 14 14 14 14 14 14 14 14 14 14 14 14 14 14 14
8 8 9 9 10 10 10 10 10 10 11 12 12 12 12 12 12 12 12 12 13 13 13 13 13 13 13 14 14 14 14 14 14 14 14 14 14 14 14 14 14 13 13 13 13 13 13 13 13
8 8 9 9 10 10 10 9 9 9 11 12 12 12 12 12 12 12 12 12 12 12 12 13 13 13 13 13 13 13 13 13 13 13 13 13 14 14 13 13 13 13 13 13 13 13 13 13 13
8 8 9 9 10 10 9 9 9 9 10 11 11 11 11 11 12 12 12 12 12 12 12 12 13 13 13 13 13 13 13 13 13 13 13 13 13 13 13 13 13 13 13 13 13 13 13 13 13
8 8 9 9 9 9 10 9 8 9 10 10 10 10 11 11 11 11 11 12 12 12 12 12 12 12 12 12 12 12 12 12 12 13 13 13 13 13 13 13 13 12 12 12 12 12 12 12 12
8 8 8 9 9 9 10 9 9 9 9 9 9 10 10 10 11 11 11 11 11 11 12 12 12 12 12 12 12 12 12 12 12 12 12 12 12 12 12 12 12 12 12 12 12 12 12 12 12
7 7 8 8 9 9 9 9 8 9 9 9 9 9 10 10 10 10 11 11 11 11 11 11 11 11 11 11 11 11 12 12 12 12 12 12 12 12 12 12 11 11 11 11 11 11 11 11 11
7 7 8 8 8 8 8 8 7 8 8 8 9 9 9 10 10 10 10 10 10 10 10 11 11 11 11 11 11 11 11 11 11 11 11 11 11 11 11 11 11 11 11 11 11 11 11 11 11
7 7 7 8 8 8 8 8 7 8 8 8 8 9 9 10 10 10 10 10 10 10 10 10 10 11 11 11 11 11 11 11 11 10 10 10 10 10 10 10 10 10 10 10 10 10 10 10 10
7 7 7 8 8 8 8 8 8 8 8 8 8 9 9 9 10 10 10 10 10 10 10 10 10 10 10 10 10 10 10 10 10 10 10 10 10 10 10 10 10 10 10 10 10 10 9 9 9
7 7 7 8 8 7 8 8 8 8 8 8 9 9 9 10 10 10 10 10 10 10 10 10 10 10 10 10 10 10 10 10 10 10 10 9 9 10 10 9 9 9 9 9 9 9 9 9 8
7 8 8 8 7 6 7 8 8 8 8 8 8 9 9 10 10 10 10 10 10 10 10 10 10 10 9 9 9 9 9 9 9 9 9 9 9 9 9 9 9 9 9 8 8 8 8 8 8
7 7 7 7 7 7 7 7 7 7 8 8 8 9 10 10 10 10 10 10 10 10 10 10 9 9 9 9 9 9 9 9 9 9 9 9 8 8 8 8 8 8 8 8 8 8 8 8 7
7 7 7 6 6 7 7 7 7 6 8 8 8 9 10 10 10 10 10 10 10 10 10 9 9 9 9 9 9 9 9 8 8 8 8 8 8 8 8 8 8 7 7 7 7 7 7 7 7
7 6 6 7 6 7 6 6 6 7 7 7 8 9 10 10 10 10 10 10 10 10 10 9 9 9 9 9 8 8 8 8 8 8 8 8 8 8 7 7 7 7 7 7 7 6 6 6 6
7 7 6 7 7 6 5 6 6 7 7 8 8 9 10 10 10 10 10 10 10 10 9 9 9 9 8 8 8 8 8 8 8 7 7 7 7 7 7 7 7 7 6 6 6 6 6 6 6
7 5 6 5 5 5 5 5 6 7 7 7 8 9 9 10 10 10 10 10 10 9 9 9 9 8 8 8 8 8 7 7 7 7 7 7 7 7 6 6 6 6 6 6 6 6 5 5 5
7 5 4 5 7 7 6 6 6 7 7 7 7 8 9 10 10 10 10 10 9 9 9 8 8 8 8 8 7 7 7 7 7 7 7 7 6 6 6 6 6 6 6 6 5 5 5 5 5
6 6 4 4 5 6 6 6 6 6 7 6 7 8 9 9 10 10 9 9 9 9 9 8 8 8 8 7 7 7 7 7 7 7 6 6 6 6 6 6 6 5 5 5 5 5 5 4 4
6 6 5 6 5 4 4 5 7 6 6 6 7 8 9 9 9 9 9 9 9 9 8 8 8 8 8 7 7 7 7 7 7 6 6 6 6 6 5 5 5 5 5 5 5 4 4 4 4
Wind_Speed
6 5 3 3 3 1 6 5 3 3 3 2 2 4 7 6 5 4 1 4 6 6 8 11 13 13 13 13 12 12 11 11 10 10 10 10 10 9 8 8 8 7 7 7 7 7 7 7 7
2 2 4 3 4 5 6 5 5 5 4 2 2 3 4 2 1 3 3 3 6 7 8 11 13 13 13 13 12 11 11 10 10 10 9 10 9 9 8 7 7 7 7 7 7 6 6 6 6
2 3 3 3 4 9 6 4 5 1 1 2 3 2 3 3 2 2 2 5 6 6 8 11 14 13 13 12 12 12 11 10 10 9 9 9 8 8 8 7 7 6 6 6 5 5 5 5 5
2 3 2 2 8 6 4 3 3 2 1 2 4 3 1 2 0 2 4 6 8 7 8 11 13 13 12 12 12 11 11 10 9 9 8 8 8 8 7 7 6 6 5 5 5 4 4 4 4
3 3 3 4 7 4 3 2 3 2 2 1 3 4 1 3 3 5 6 7 8 7 8 10 13 13 12 11 11 11 11 10 9 8 8 8 8 7 7 6 6 5 5 4 4 3 3 3 3
2 2 3 6 5 3 2 1 1 1 2 2 3 4 1 2 4 6 6 7 8 8 8 10 12 12 11 11 11 11 10 10 9 8 8 8 8 7 7 6 5 5 4 4 4 3 3 3 3
3 2 3 4 3 3 2 1 3 2 2 3 4 5 2 1 3 6 7 8 8 9 8 8 9 10 10 10 10 10 10 10 9 8 8 8 7 7 7 6 5 5 4 4 3 3 2 2 3
3 2 2 3 4 4 1 1 1 3 3 2 3 6 5 4 5 7 8 9 8 8 8 8 9 9 9 10 10 10 10 10 9 9 8 8 7 7 7 6 5 5 4 4 4 3 3 3 3
2 2 3 4 4 3 2 1 1 1 4 2 1 2 3 9 8 9 8 8 7 8 7 7 7 8 9 9 9 10 10 9 9 9 8 8 7 7 6 6 6 5 5 5 4 4 4 4 4
3 3 4 3 3 3 2 1 2 2 3 2 3 4 8 9 9 10 9 8 6 6 6 6 6 7 8 7 8 9 8 9 9 8 8 8 7 7 6 7 7 7 6 6 6 5 5 5 5
2 3 3 3 3 3 2 1 1 5 3 4 6 9 10 9 9 9 8 7 5 5 5 5 6 7 7 6 7 7 7 8 8 8 8 8 8 7 8 7 7 7 6 6 6 7 6 6 5
1 2 2 3 2 1 2 2 2 2 1 2 6 10 10 10 8 8 7 6 5 6 5 5 5 6 7 7 6 6 6 6 7 7 8 7 6 5 5 5 6 6 6 5 5 5 6 5 5
1 1 2 2 3 3 4 4 3 3 3 7 10 10 10 9 7 6 6 6 6 5 5 4 5 5 6 6 5 6 5 6 6 7 8 7 5 4 4 4 5 6 6 5 4 4 4 4 5
1 1 2 5 4 3 5 4 4 3 5 9 10 9 8 7 7 6 6 5 4 4 4 4 5 5 6 5 5 5 5 6 7 7 7 7 6 5 4 3 4 5 5 5 4 3 3 3 3
0 3 5 6 4 2 3 6 4 2 6 9 8 7 7 6 6 6 4 4 4 4 4 4 4 5 6 5 5 5 6 6 6 7 7 7 7 6 5 3 3 5 6 5 4 4 3 3 3
3 4 3 5 5 4 4 3 3 3 7 8 6 6 6 5 4 4 4 4 4 4 4 4 4 5 5 5 5 5 6 7 6 7 8 8 8 7 5 4 4 6 6 5 2 2 2 3 3
5 3 3 4 6 3 4 3 2 3 6 6 5 4 4 4 3 3 3 3 4 4 4 4 4 4 4 4 5 5 6 6 6 7 8 8 8 8 6 4 5 6 4 3 2 2 2 2 3
1 2 2 2 5 5 5 3 2 3 4 4 3 3 3 3 2 2 3 3 3 3 4 3 4 3 3 4 4 4 4 4 6 7 7 7 8 8 7 5 6 7 3 3 3 2 2 2 3
3 4 4 3 4 4 4 3 2 1 3 2 2 2 3 2 1 2 2 3 3 3 3 2 3 3 3 3 2 2 2 2 3 4 6 7 7 7 6 5 5 5 3 3 3 2 2 2 3
5 6 4 4 5 4 4 3 2 0 2 3 3 4 4 3 2 2 2 2 2 2 2 2 1 1 2 2 1 1 1 1 1 2 5 7 7 7 5 5 4 4 3 4 4 3 2 2 3
6 3 2 1 4 6 4 5 2 1 0 1 2 3 3 5 5 4 3 3 2 2 2 2 1 1 1 1 2 2 2 2 2 2 3 5 6 6 6 5 4 4 3 3 4 3 2 2 2
3 2 2 3 4 4 4 1 4 2 3 2 3 3 4 4 5 5 4 4 4 4 2 2 2 1 1 1 2 1 1 0 1 1 2 3 5 5 5 5 4 3 2 3 3 3 2 1 1
0 2 3 3 4 3 5 2 6 3 3 4 4 5 5 5 6 6 6 5 4 3 3 2 2 2 1 1 2 1 1 1 1 1 2 3 3 4 4 4 3 3 2 2 2 3 2 1 0
0 4 5 5 5 2 2 1 5 3 4 4 4 4 5 5 5 5 4 4 3 3 2 2 2 2 2 2 2 2 2 2 1 2 2 2 2 2 3 3 3 3 2 2 2 2 2 1 1
6 6 5 6 5 3 2 1 7 6 4 4 5 6 5 4 5 5 5 4 4 4 3 3 3 3 3 3 3 3 3 3 3 3 3 2 2 2 3 2 2 2 2 2 2 1 1 1 1
3 4 5 3 3 4 3 4 7 5 5 4 4 3 2 2 4 4 5 5 5 5 4 4 4 4 4 4 4 3 3 3 3 4 3 3 3 3 2 2 2 2 2 2 1 1 1 1 1
3 3 3 5 1 2 5 7 8 3 2 2 2 2 1 1 3 4 4 4 4 5 5 5 5 5 4 5 4 4 4 4 4 4 3 3 3 3 3 2 2 2 2 1 1 0 1 1 0
3 5 4 3 2 3 6 5 5 5 4 3 3 3 3 2 2 2 3 3 4 4 4 4 4 5 5 5 5 4 5 5 5 4 4 4 4 3 3 3 2 2 2 1 1 1 1 1 1
2 3 4 3 3 3 3 6 5 5 4 4 4 4 4 3 3 3 3 2 3 2 3 3 4 5 5 5 5 5 5 4 4 4 5 5 4 4 3 3 3 3 2 2 2 2 2 2 1
2 3 5 3 2 3 3 7 5 5 5 4 3 3 3 3 2 3 2 2 2 2 3 3 4 5 5 5 5 5 5 4 5 5 5 5 5 4 4 4 4 3 3 3 3 3 3 3 2
Wind_Direction
347 3 40 51 77 154 225 225 199 180 201 217 159 145 153 153 162 176 100 116 122 135 143 142 137 134 129 124 119 114 110 107 103 103 105 105 102 99 95 94 93 91 88 86 87 88 89 86 84
9 23 50 70 158 204 237 211 199 209 185 128 66 94 111 129 69 103 112 111 122 130 135 138 133 132 129 125 120 115 111 108 105 101 103 102 100 95 89 89 94 89 85 85 82 80 83 82 82
22 55 92 116 193 204 214 206 197 196 165 120 95 65 121 137 129 131 127 122 111 109 120 131 129 128 127 124 121 116 111 107 104 99 101 102 100 95 88 83 89 89 86 84 81 76 79 76 73
72 61 77 169 223 228 208 212 177 124 58 75 124 101 45 22 187 135 125 117 109 97 103 123 123 122 123 122 120 117 112 108 105 101 100 101 98 94 88 83 81 83 86 86 83 79 75 71 61
66 106 154 220 235 249 255 245 179 143 157 117 127 130 74 352 70 102 109 111 111 99 91 112 117 117 117 120 119 117 112 108 104 101 99 98 96 93 88 83 79 77 79 79 76 70 64 57 45
81 108 175 216 235 255 260 242 137 87 132 129 125 124 131 48 97 107 104 101 99 99 88 99 109 111 110 110 113 112 111 106 100 96 94 95 93 90 86 82 77 74 72 66 60 57 50 39 26
132 142 194 196 210 234 219 178 150 150 164 185 153 128 143 128 112 111 104 96 89 85 81 80 93 98 101 101 100 103 106 102 98 93 88 87 87 85 80 74 70 68 62 56 47 39 26 13 4
139 129 180 194 190 218 190 54 156 158 179 150 136 150 174 171 125 109 99 91 85 77 74 71 77 85 87 88 90 90 95 95 92 87 82 79 78 76 72 65 60 56 50 47 40 28 15 4 358
104 104 205 206 197 211 191 80 11 51 121 99 85 169 151 128 124 113 103 89 82 73 64 67 69 73 79 83 83 82 82 85 82 76 75 73 66 63 61 57 54 49 41 34 29 23 17 10 2
118 178 227 231 211 205 214 176 160 103 106 109 81 83 114 123 127 124 122 114 101 85 65 58 64 65 71 79 74 70 70 71 72 71 66 63 64 59 55 51 49 46 40 33 26 21 19 17 8
147 197 250 280 269 207 187 149 138 134 158 184 164 145 134 129 127 125 119 113 107 95 77 60 60 64 66 68 70 65 64 63 60 61 63 63 60 53 46 42 33 31 31 24 16 18 15 12 4
122 283 263 279 291 182 156 126 68 76 204 151 140 139 134 133 131 130 123 114 104 94 83 69 62 65 64 67 67 65 62 59 53 52 58 60 53 45 40 37 26 25 21 16 13 8 5 3 358
61 308 322 357 48 72 83 76 87 21 34 100 110 115 123 124 116 107 107 103 100 93 81 67 67 67 63 61 58 56 56 59 55 52 50 55 54 44 37 32 26 21 17 13 5 0 354 351 347
157 36 27 18 41 35 84 62 68 38 81 100 109 114 116 117 115 105 104 104 101 95 85 72 66 66 68 64 60 55 51 52 55 51 48 50 50 43 37 31 25 15 7 3 0 352 340 330 333
21 49 35 18 23 21 88 56 42 44 100 103 108 111 107 103 105 110 115 111 106 95 84 76 75 65 66 63 58 57 51 53 50 45 46 46 45 42 39 32 21 8 6 7 6 1 360 354 352
31 53 42 358 12 5 86 94 27 50 112 109 108 106 104 93 98 106 107 102 99 90 81 70 70 65 63 65 63 59 55 53 48 44 44 41 41 44 44 35 14 6 15 15 6 3 352 349 349
32 60 44 359 8 24 83 120 36 65 114 118 115 113 114 102 90 97 106 113 108 102 92 77 67 65 64 68 68 64 58 49 44 43 41 38 37 40 44 39 19 11 20 20 8 13 360 340 341
50 67 48 14 353 44 72 81 42 64 110 125 127 131 135 141 159 121 118 120 111 99 88 83 74 63 63 65 61 54 51 40 41 39 35 37 35 35 39 38 25 19 19 16 8 355 357 337 328
121 91 66 8 358 54 67 64 21 81 106 132 161 172 179 197 173 131 128 127 115 103 99 87 75 56 55 54 51 45 26 17 24 27 30 31 31 33 39 32 26 24 22 12 360 352 358 359 347
77 80 48 16 20 59 57 18 337 149 172 190 195 205 205 202 187 181 159 155 153 154 138 121 109 78 62 69 85 102 97 39 24 9 23 26 27 27 33 32 25 26 18 18 17 15 5 0 13
43 84 97 54 21 38 42 357 344 344 7 184 203 210 214 207 208 210 203 202 187 193 184 180 168 124 81 75 79 67 51 27 12 2 1 8 17 24 28 27 27 25 30 13 5 14 30 352 350
34 350 90 80 65 10 41 349 302 310 308 264 241 229 230 225 215 211 210 214 212 214 196 188 176 164 139 108 107 120 134 283 290 316 335 353 9 11 17 20 21 21 23 13 0 15 2 10 339
61 15 63 71 89 42 25 85 294 330 286 273 258 241 238 225 213 213 214 214 209 194 185 193 188 188 164 142 150 142 176 239 292 326 336 344 350 353 4 8 11 10 5 3 3 4 2 10 328
115 52 51 46 59 29 338 106 288 264 247 275 275 255 240 223 212 214 211 200 193 180 184 191 199 216 198 185 179 180 207 230 274 300 307 317 322 331 346 353 4 357 353 343 343 353 0 360 1
44 67 35 13 12 274 310 226 256 266 259 253 271 276 259 224 205 205 200 203 206 202 206 205 212 234 221 209 210 209 215 217 233 255 264 276 288 296 307 326 336 338 328 332 349 359 353 360 12
30 97 134 174 238 291 328 253 261 276 287 274 274 285 283 221 214 217 216 214 216 217 213 211 221 236 228 221 226 223 220 220 234 240 239 246 253 259 272 280 290 301 311 324 346 344 329 12 11
78 82 134 129 122 302 292 296 305 310 327 332 342 360 352 251 232 233 232 226 225 225 221 217 223 238 237 231 231 229 226 226 237 241 239 246 249 254 252 252 262 279 288 295 309 322 320 336 330
96 135 91 105 134 287 302 288 270 291 290 304 315 315 312 311 283 257 248 244 241 234 231 223 224 235 239 233 232 235 230 229 232 232 240 246 251 249 248 251 254 266 274 271 245 265 274 275 288
81 96 102 108 142 166 275 277 233 237 260 258 270 287 289 285 283 279 273 263 253 243 229 228 235 241 244 238 235 238 241 235 230 232 240 242 244 238 237 237 238 244 253 255 234 245 244 240 270
189 174 151 154 213 177 200 268 272 250 265 249 261 294 304 295 293 290 287 283 273 264 255 247 246 247 247 241 237 239 242 237 236 240 241 237 239 234 231 229 230 235 238 234 226 237 237 231 241
Height
1497 1499 1500 1503 1506 1511 1509 1505 1501 1501 1500 1499 1499 1500 1502 1505 1509 1514 1509 1509 1513 1516 1519 1522 1524 1527 1528 1530 1532 1533 1534 1535 1536 1537 1538 1539 1539 1540 1540 1541 1541 1542 1542 1543 1543 1543 1544 1544 1544
1497 1499 1501 1502 1507 1512 1507 1501 1500 1498 1497 1497 1498 1499 1500 1503 1504 1506 1507 1509 1513 1516 1519 1522 1524 1526 1528 1530 1532 1533 1534 1535 1536 1537 1538 1539 1539 1540 1541 1541 1542 1542 1542 1543 1543 1544 1544 1544 1545
1496 1498 1501 1502 1505 1504 1501 1497 1497 1496 1496 1497 1498 1499 1500 1502 1503 1505 1507 1510 1513 1517 1519 1522 1524 1526 1528 1530 1531 1533 1534 1535 1536 1537 1538 1539 1539 1540 1541 1541 1541 1542 1542 1543 1543 1544 1544 1544 1545
1496 1498 1500 1503 1501 1498 1495 1494 1494 1495 1496 1496 1497 1500 1501 1503 1504 1506 1507 1510 1514 1517 1520 1522 1525 1526 1528 1530 1531 1533 1534 1535 1536 1537 1538 1539 1539 1540 1540 1541 1541 1542 1542 1543 1543 1543 1544 1544 1544
1495 1497 1501 1502 1499 1496 1493 1493 1493 1494 1495 1496 1497 1499 1500 1502 1503 1506 1508 1511 1514 1517 1520 1522 1525 1527 1528 1530 1531 1532 1534 1535 1536 1537 1538 1538 1539 1540 1540 1541 1541 1541 1542 1542 1542 1543 1543 1543 1543
1495 1495 1501 1502 1498 1494 1493 1492 1493 1494 1495 1496 1497 1498 1500 1502 1504 1506 1509 1511 1514 1517 1520 1522 1525 1527 1528 1530 1531 1532 1534 1535 1536 1537 1537 1538 1539 1539 1540 1540 1540 1541 1541 1541 1542 1542 1542 1542 1542
1494 1496 1498 1498 1497 1494 1492 1492 1493 1494 1494 1495 1496 1498 1500 1502 1504 1507 1509 1512 1515 1518 1520 1523 1525 1527 1528 1530 1531 1532 1533 1534 1536 1536 1537 1538 1538 1539 1539 1539 1540 1540 1540 1540 1541 1541 1541 1541 1541
1492 1496 1496 1497 1496 1493 1491 1491 1491 1492 1493 1495 1496 1497 1499 1501 1504 1507 1509 1512 1515 1518 1520 1522 1524 1526 1528 1529 1531 1532 1533 1534 1535 1536 1536 1537 1538 1538 1538 1539 1539 1539 1539 1539 1539 1539 1539 1540 1540
1492 1498 1497 1495 1493 1491 1490 1490 1491 1491 1492 1494 1495 1496 1498 1500 1504 1506 1509 1512 1515 1518 1520 1522 1524 1526 1528 1529 1530 1532 1532 1533 1534 1535 1536 1536 1537 1537 1537 1538 1538 1538 1538 1538 1538 1538 1538 1538 1538
1492 1497 1493 1490 1489 1489 1488 1489 1490 1491 1492 1493 1494 1496 1498 1501 1504 1506 1509 1512 1515 1517 1520 1522 1524 1525 1527 1528 1530 1531 1532 1533 1534 1534 1535 1535 1536 1536 1536 1536 1537 1537 1537 1537 1536 1536 1536 1536 1536
1491 1493 1490 1489 1487 1487 1488 1488 1489 1490 1492 1492 1492 1495 1498 1501 1504 1507 1510 1513 1515 1517 1519 1521 1523 1525 1526 1528 1529 1530 1531 1532 1532 1533 1534 1534 1535 1535 1535 1535 1535 1535 1535 1535 1535 1535 1534 1534 1534
1491 1490 1489 1488 1487 1487 1487 1488 1490 1490 1491 1491 1493 1495 1498 1501 1505 1508 1511 1513 1516 1518 1520 1522 1523 1525 1526 1527 1528 1529 1530 1531 1531 1532 1533 1533 1533 1534 1534 1534 1534 1533 1533 1533 1533 1533 1533 1532 1532
1491 1491 1489 1488 1487 1487 1487 1489 1490 1491 1491 1492 1494 1497 1500 1503 1506 1509 1512 1514 1516 1518 1520 1521 1523 1524 1525 1526 1527 1528 1529 1530 1530 1530 1531 1532 1532 1532 1532 1532 1532 1532 1531 1531 1531 1531 1530 1530 1530
1491 1490 1490 1489 1488 1489 1489 1491 1492 1494 1494 1494 1496 1499 1502 1504 1507 1510 1512 1515 1517 1519 1520 1521 1522 1523 1525 1526 1527 1527 1528 1528 1529 1529 1529 1530 1530 1530 1530 1531 1530 1530 1530 1529 1529 1529 1528 1528 1527
1491 1491 1491 1491 1490 1491 1491 1495 1497 1496 1496 1497 1499 1502 1504 1507 1509 1511 1513 1515 1517 1519 1520 1521 1522 1523 1524 1525 1526 1527 1527 1527 1528 1528 1528 1528 1529 1528 1528 1528 1528 1528 1528 1527 1527 1526 1526 1525 1525
1492 1494 1497 1494 1492 1492 1495 1501 1500 1499 1498 1500 1502 1504 1506 1508 1511 1513 1514 1516 1518 1519 1520 1521 1522 1523 1524 1525 1525 1526 1526 1526 1526 1527 1527 1527 1527 1527 1527 1526 1526 1526 1526 1525 1525 1524 1523 1523 1522
1498 1501 1500 1498 1495 1494 1496 1502 1502 1501 1501 1502 1504 1505 1507 1509 1511 1513 1515 1516 1518 1519 1520 1521 1522 1523 1523 1524 1525 1525 1525 1525 1525 1525 1526 1525 1525 1525 1525 1525 1524 1524 1524 1523 1522 1522 1521 1520 1519
1504 1504 1503 1502 1499 1497 1499 1503 1503 1502 1503 1504 1505 1507 1508 1509 1511 1513 1515 1517 1518 1519 1520 1521 1522 1522 1523 1524 1524 1525 1525 1525 1524 1524 1524 1524 1523 1523 1523 1522 1522 1522 1521 1521 1520 1519 1518 1518 1517
1502 1503 1505 1504 1501 1501 1503 1504 1505 1504 1504 1505 1506 1507 1508 1510 1512 1514 1515 1517 1518 1519 1520 1520 1521 1522 1523 1523 1523 1524 1524 1524 1524 1523 1523 1522 1522 1522 1521 1521 1520 1519 1519 1518 1517 1517 1516 1515 1514
1502 1505 1507 1505 1503 1504 1505 1506 1505 1504 1505 1505 1506 1507 1508 1510 1512 1513 1515 1516 1517 1518 1519 1520 1521 1522 1522 1522 1522 1523 1523 1523 1523 1522 1521 1521 1520 1520 1519 1519 1518 1517 1516 1516 1515 1514 1513 1513 1512
1506 1507 1508 1508 1506 1506 1506 1508 1506 1505 1505 1505 1506 1506 1508 1509 1510 1512 1514 1515 1516 1517 1518 1520 1520 1521 1521 1521 1522 1522 1522 1521 1521 1521 1520 1519 1519 1518 1517 1516 1515 1515 1514 1514 1513 1512 1511 1510 1510
1509 1507 1507 1507 1511 1516 1514 1518 1509 1507 1506 1505 1505 1505 1506 1507 1509 1511 1512 1514 1515 1516 1517 1518 1519 1520 1520 1520 1520 1520 1520 1520 1520 1519 1518 1518 1517 1516 1515 1514 1513 1513 1512 1511 1510 1509 1509 1508 1508
1510 1508 1509 1510 1512 1517 1518 1520 1515 1508 1506 1504 1503 1503 1504 1506 1507 1509 1511 1512 1514 1515 1516 1517 1518 1518 1519 1519 1519 1519 1519 1518 1518 1517 1516 1516 1515 1514 1513 1512 1512 1511 1510 1509 1508 1507 1506 1506 1505
1509 1509 1511 1516 1518 1521 1521 1522 1517 1512 1506 1503 1502 1502 1502 1504 1505 1507 1509 1511 1512 1513 1514 1515 1516 1516 1517 1517 1517 1517 1517 1516 1516 1515 1514 1514 1513 1512 1511 1510 1509 1508 1508 1507 1506 1505 1504 1503 1503
1512 1517 1527 1526 1531 1527 1524 1523 1518 1506 1503 1502 1501 1500 1500 1501 1503 1505 1507 1509 1510 1511 1513 1513 1514 1514 1515 1515 1515 1515 1515 1514 1514 1513 1512 1512 1511 1510 1509 1508 1507 1506 1505 1504 1504 1503 1502 1501 1500
1516 1519 1529 1531 1532 1532 1527 1524 1512 1503 1501 1500 1500 1499 1499 1500 1501 1503 1505 1507 1508 1510 1511 1511 1511 1512 1512 1512 1513 1513 1512 1512 1511 1511 1510 1509 1509 1507 1506 1505 1505 1504 1503 1502 1501 1500 1499 1498 1498
1517 1524 1525 1533 1535 1534 1528 1522 1509 1501 1500 1500 1499 1499 1498 1499 1500 1502 1504 1505 1507 1508 1508 1509 1509 1509 1510 1510 1510 1510 1510 1509 1509 1508 1507 1507 1506 1505 1504 1503 1502 1502 1501 1500 1499 1498 1497 1496 1495
1519 1523 1529 1530 1529 1529 1526 1524 1517 1505 1502 1500 1499 1499 1498 1499 1500 1501 1502 1504 1505 1505 1506 1506 1507 1507 1507 1507 1507 1507 1506 1506 1506 1505 1504 1503 1503 1502 1501 1500 1499 1499 1498 1497 1496 1495 1494 1493 1492
1521 1524 1528 1534 1533 1534 1530 1521 1507 1504 1501 1500 1499 1498 1498 1499 1499 1500 1501 1502 1503 1503 1504 1504 1504 1504 1504 1504 1504 1503 1503 1503 1502 1502 1501 1500 1500 1499 1498 1497 1496 1496 1495 1494 1493 1492 1491 1490 1489
1520 1521 1526 1528 1531 1538 1537 1524 1501 1501 1499 1499 1498 1498 1498 1498 1499 1499 1500 1500 1501 1501 1501 1501 1501 1501 1501 1500 1500 1500 1499 1499 1498 1498 1497 1497 1496 1495 1494 1494 1493 1492 1491 1490 1489 1488 1487 1486 1485